DW4604 Weather Reports


time (UTC)temp
F
wind
direction
speed
knots
gust
knots
rain 1hr
in
rain 24hr
in
rain mn
in
humidity
%
barometer
mb
20260505220957 64 0 0.0 0.0 0.00 0.00 0.00 57 1005.4
20260505215456 64 0 0.0 0.0 0.00 0.00 0.00 56 1005.5
20260505214956 64 0 0.0 0.0 0.00 0.00 0.00 56 1005.7
20260505214456 64 0 0.0 0.0 0.00 0.00 0.00 56 1005.6
20260505213456 63 0 0.0 0.0 0.00 0.00 0.00 56 1005.7
20260505212956 62 0 0.0 0.0 0.00 0.00 0.00 57 1005.7
20260505211455 62 0 0.0 0.0 0.00 0.00 0.00 57 1005.6
20260505210456 62 0 0.0 0.0 0.00 0.00 0.00 56 1005.7
20260505205956 62 0 0.0 0.0 0.00 0.00 0.00 57 1005.6
20260505205457 62 0 0.0 0.0 0.00 0.00 0.00 57 1005.6
20260505204956 63 0 0.0 0.0 0.00 0.00 0.00 57 1005.5
20260505204456 63 0 0.0 0.0 0.00 0.00 0.00 56 1005.6
20260505203957 64 0 0.0 0.0 0.00 0.00 0.00 54 1005.6
20260505203456 65 0 0.0 0.0 0.00 0.00 0.00 54 1005.6
20260505202956 65 0 0.0 0.0 0.00 0.00 0.00 53 1005.7
20260505201456 64 0 0.0 0.0 0.00 0.00 0.00 53 1005.6
20260505200958 64 0 0.0 0.0 0.00 0.00 0.00 53 1005.6
20260505200457 64 0 0.0 0.0 0.00 0.00 0.00 52 1005.6
20260505195956 65 0 0.0 0.0 0.00 0.00 0.00 51 1005.7
20260505195456 65 0 0.0 0.0 0.00 0.00 0.00 52 1005.7
20260505194957 65 0 0.0 0.0 0.00 0.00 0.00 51 1005.6
20260505194456 66 0 0.0 0.0 0.00 0.00 0.00 51 1005.7
20260505193456 67 0 0.0 0.0 0.00 0.00 0.00 49 1005.6
20260505192956 67 0 0.0 0.0 0.00 0.00 0.00 48 1005.6
20260505192457 68 0 0.0 0.0 0.00 0.00 0.00 47 1005.6
20260505191957 68 0 0.0 0.0 0.00 0.00 0.00 47 1005.6
20260505190957 69 0 0.0 0.0 0.00 0.00 0.00 45 1005.6
20260505190457 69 0 0.0 0.0 0.00 0.00 0.00 45 1005.5
20260505185457 70 0 0.0 0.0 0.00 0.00 0.00 44 1005.6
20260505184957 71 0 0.0 0.0 0.00 0.00 0.00 42 1005.6
20260505184457 70 0 0.0 0.0 0.00 0.00 0.00 42 1005.5
20260505183457 70 0 0.0 0.0 0.00 0.00 0.00 42 1005.4
20260505182957 70 0 0.0 0.0 0.00 0.00 0.00 42 1005.5
20260505182457 71 0 0.0 0.0 0.00 0.00 0.00 40 1005.4
20260505181956 71 0 0.0 0.0 0.00 0.00 0.00 39 1005.4
20260505181458 71 0 0.0 0.0 0.00 0.00 0.00 39 1005.4
20260505180957 72 0 0.0 0.0 0.00 0.00 0.00 38 1005.3
20260505180456 72 0 0.0 0.0 0.00 0.00 0.00 38 1005.3
20260505180000 72 0 0.0 0.0 0.00 0.00 0.00 37 1005.3
20260505175456 72 0 0.0 0.0 0.00 0.00 0.00 36 1005.4
20260505174956 72 0 0.0 0.0 0.00 0.00 0.00 35 1005.2
20260505174457 72 0 0.0 0.0 0.00 0.00 0.00 34 1005.3
20260505173957 72 0 0.0 0.0 0.00 0.00 0.00 33 1005.2
20260505172457 73 0 0.0 0.0 0.00 0.00 0.00 33 1005.1
20260505171957 74 0 0.0 0.0 0.00 0.00 0.00 30 1005.1
20260505171456 74 0 0.0 0.0 0.00 0.00 0.00 31 1005.0
20260505170958 74 0 0.0 0.0 0.00 0.00 0.00 31 1004.9
20260505170457 75 0 0.0 0.0 0.00 0.00 0.00 31 1005.0
20260505165457 76 0 0.0 0.0 0.00 0.00 0.00 30 1005.0
20260505164957 76 0 0.0 0.0 0.00 0.00 0.00 31 1005.1
20260505164457 76 0 0.0 0.0 0.00 0.00 0.00 30 1005.1
20260505163957 76 0 0.0 0.0 0.00 0.00 0.00 29 1005.2
20260505162957 77 0 0.0 0.0 0.00 0.00 0.00 28 1005.2
20260505162457 77 0 0.0 0.0 0.00 0.00 0.00 28 1005.3
20260505161957 77 0 0.0 0.0 0.00 0.00 0.00 29 1005.2
20260505160957 78 0 0.0 0.0 0.00 0.00 0.00 27 1005.3
20260505160458 78 0 0.0 0.0 0.00 0.00 0.00 26 1005.3
20260505152957 80 0 0.0 0.0 0.00 0.00 0.00 23 1005.3
20260505152457 81 0 0.0 0.0 0.00 0.00 0.00 24 1005.3
20260505151957 81 0 0.0 0.0 0.00 0.00 0.00 25 1005.2
20260505151459 81 0 0.0 0.0 0.00 0.00 0.00 25 1005.1
20260505150957 81 0 0.0 0.0 0.00 0.00 0.00 24 1005.2
20260505150457 81 0 0.0 0.0 0.00 0.00 0.00 24 1005.2
20260505140457 82 0 0.0 0.0 0.00 0.00 0.00 27 1005.7
20260505124959 83 0 0.0 0.0 0.00 0.00 0.00 26 1006.6
20260505124457 83 0 0.0 0.0 0.00 0.00 0.00 26 1006.5
20260505123957 83 0 0.0 0.0 0.00 0.00 0.00 29 1006.5
20260505123457 79 0 0.0 0.0 0.00 0.00 0.00 29 1006.5
20260505122959 78 0 0.0 0.0 0.00 0.00 0.00 30 1006.7
20260505122458 78 0 0.0 0.0 0.00 0.00 0.00 28 1006.7
20260505121958 78 0 0.0 0.0 0.00 0.00 0.00 28 1006.8
20260505121458 79 0 0.0 0.0 0.00 0.00 0.00 27 1006.9
20260505120959 80 0 0.0 0.0 0.00 0.00 0.00 27 1006.8
20260505120458 81 0 0.0 0.0 0.00 0.00 0.00 25 1006.9
20260505115958 83 0 0.0 0.0 0.00 0.00 0.00 27 1006.8
20260505115458 82 0 0.0 0.0 0.00 0.00 0.00 26 1006.9
20260505114959 81 0 0.0 0.0 0.00 0.00 0.00 30 1007.0
20260505114459 81 0 0.0 0.0 0.00 0.00 0.00 26 1006.9
20260505113958 83 0 0.0 0.0 0.00 0.00 0.00 28 1007.0
20260505113459 83 0 0.0 0.0 0.00 0.00 0.00 28 1006.9
20260505112458 82 0 0.0 0.0 0.00 0.00 0.00 30 1007.0
20260505111958 82 0 0.0 0.0 0.00 0.00 0.00 29 1007.0
20260505111458 83 0 0.0 0.0 0.00 0.00 0.00 28 1007.0
20260505110958 83 0 0.0 0.0 0.00 0.00 0.00 27 1007.1
20260505110458 83 0 0.0 0.0 0.00 0.00 0.00 29 1007.1
20260505101958 81 0 0.0 0.0 0.00 0.00 0.00 29 1007.4
20260505101458 80 0 0.0 0.0 0.00 0.00 0.00 28 1007.5
20260505100958 80 0 0.0 0.0 0.00 0.00 0.00 29 1007.5
20260505095459 81 0 0.0 0.0 0.00 0.00 0.00 33 1007.6
20260505094958 81 0 0.0 0.0 0.00 0.00 0.00 33 1007.6
20260505094458 80 0 0.0 0.0 0.00 0.00 0.00 32 1007.6
20260505093958 80 0 0.0 0.0 0.00 0.00 0.00 35 1007.8
20260505093459 80 0 0.0 0.0 0.00 0.00 0.00 34 1007.8
20260505092959 80 0 0.0 0.0 0.00 0.00 0.00 37 1007.8
20260505092459 80 0 0.0 0.0 0.00 0.00 0.00 36 1007.9
20260505091959 80 0 0.0 0.0 0.00 0.00 0.00 36 1008.0
20260505091458 78 0 0.0 0.0 0.00 0.00 0.00 39 1008.1
20260505090959 78 0 0.0 0.0 0.00 0.00 0.00 37 1008.2
20260505085958 78 0 0.0 0.0 0.00 0.00 0.00 38 1008.3
20260505085500 78 0 0.0 0.0 0.00 0.00 0.00 37 1008.3
20260505084959 78 0 0.0 0.0 0.00 0.00 0.00 37 1008.4
20260505084459 77 0 0.0 0.0 0.00 0.00 0.00 39 1008.5
20260505083958 77 0 0.0 0.0 0.00 0.00 0.00 38 1008.5
20260505083000 76 0 0.0 0.0 0.00 0.00 0.00 40 1008.7
20260505082500 76 0 0.0 0.0 0.00 0.00 0.00 39 1008.8
20260505082000 75 0 0.0 0.0 0.00 0.00 0.00 38 1008.7
20260505081500 76 0 0.0 0.0 0.00 0.00 0.00 38 1008.8
20260505080959 76 0 0.0 0.0 0.00 0.00 0.00 40 1008.9
20260505080459 76 0 0.0 0.0 0.00 0.00 0.00 39 1008.9
20260505075000 73 0 0.0 0.0 0.00 0.00 0.00 40 1009.0
20260505074459 73 0 0.0 0.0 0.00 0.00 0.00 42 1009.1
20260505073959 73 0 0.0 0.0 0.00 0.00 0.00 40 1009.1
20260505073459 72 0 0.0 0.0 0.00 0.00 0.00 45 1009.2
20260505072959 72 0 0.0 0.0 0.00 0.00 0.00 44 1009.3
20260505072500 73 0 0.0 0.0 0.00 0.00 0.00 40 1009.3
20260505071958 73 0 0.0 0.0 0.00 0.00 0.00 43 1009.4
20260505071458 72 0 0.0 0.0 0.00 0.00 0.00 43 1009.4
20260505071000 72 0 0.0 0.0 0.00 0.00 0.00 45 1009.4
20260505070459 71 0 0.0 0.0 0.00 0.00 0.00 43 1009.5
20260505065459 70 0 0.0 0.0 0.00 0.00 0.00 47 1009.6
20260505064959 69 0 0.0 0.0 0.00 0.00 0.00 45 1009.6
20260505064459 69 0 0.0 0.0 0.00 0.00 0.00 46 1009.5
20260505063959 68 0 0.0 0.0 0.00 0.00 0.00 49 1009.6
20260505063458 67 0 0.0 0.0 0.00 0.00 0.00 48 1009.6
20260505062500 66 0 0.0 0.0 0.00 0.00 0.00 49 1009.7
20260505061959 65 0 0.0 0.0 0.00 0.00 0.00 50 1009.7
20260505061459 65 0 0.0 0.0 0.00 0.00 0.00 53 1009.7
20260505060959 64 0 0.0 0.0 0.00 0.00 0.00 53 1009.7
20260505060500 64 0 0.0 0.0 0.00 0.00 0.00 51 1009.8
20260505055959 63 0 0.0 0.0 0.00 0.00 0.00 54 1009.7
20260505054959 62 0 0.0 0.0 0.00 0.00 0.00 57 1009.8
20260505053959 60 0 0.0 0.0 0.00 0.00 0.00 58 1009.8
20260505053000 59 0 0.0 0.0 0.00 0.00 0.00 61 1009.8
20260505052501 58 0 0.0 0.0 0.00 0.00 0.00 62 1009.9
20260505051459 57 0 0.0 0.0 0.00 0.00 0.00 64 1009.9
20260505051000 56 0 0.0 0.0 0.00 0.00 0.00 64 1009.9
20260505050459 56 0 0.0 0.0 0.00 0.00 0.00 64 1009.9
20260505040959 50 0 0.0 0.0 0.00 0.00 0.00 73 1010.0
20260505040001 48 0 0.0 0.0 0.00 0.00 0.00 77 1010.0
20260505035500 48 0 0.0 0.0 0.00 0.00 0.00 78 1010.0
20260505034959 47 0 0.0 0.0 0.00 0.00 0.00 78 1010.0
20260505034500 47 0 0.0 0.0 0.00 0.00 0.00 78 1010.1
20260505033959 47 0 0.0 0.0 0.00 0.00 0.00 78 1010.1
20260505033459 47 0 0.0 0.0 0.00 0.00 0.00 78 1010.1
20260505032959 47 0 0.0 0.0 0.00 0.00 0.00 78 1010.0
20260505032459 47 0 0.0 0.0 0.00 0.00 0.00 78 1010.0
20260505031501 47 0 0.0 0.0 0.00 0.00 0.00 78 1010.0
20260505031000 47 0 0.0 0.0 0.00 0.00 0.00 78 1010.0
20260505030501 47 0 0.0 0.0 0.00 0.00 0.00 78 1010.1
20260505030000 47 0 0.0 0.0 0.00 0.00 0.00 77 1010.1
20260505025459 47 0 0.0 0.0 0.00 0.00 0.00 77 1010.3
20260505025000 48 0 0.0 0.0 0.00 0.00 0.00 77 1010.3
20260505024000 47 0 0.0 0.0 0.00 0.00 0.00 77 1010.3
20260505023500 47 0 0.0 0.0 0.00 0.00 0.00 78 1010.5
20260505022459 47 0 0.0 0.0 0.00 0.00 0.00 77 1010.5
20260505022001 48 0 0.0 0.0 0.00 0.00 0.00 77 1010.5
20260505021500 48 0 0.0 0.0 0.00 0.00 0.00 77 1010.5
20260505021000 48 0 0.0 0.0 0.00 0.00 0.00 77 1010.5
20260505020500 49 0 0.0 0.0 0.00 0.00 0.00 76 1010.5
20260505020001 49 0 0.0 0.0 0.00 0.00 0.00 76 1010.5
20260505015459 49 0 0.0 0.0 0.00 0.00 0.00 76 1010.6
20260505014959 49 0 0.0 0.0 0.00 0.00 0.00 76 1010.6
20260505014459 48 0 0.0 0.0 0.00 0.00 0.00 76 1010.7
20260505014000 48 0 0.0 0.0 0.00 0.00 0.00 77 1010.7
20260505013459 48 0 0.0 0.0 0.00 0.00 0.00 77 1010.7
20260505013000 49 0 0.0 0.0 0.00 0.00 0.00 77 1010.7
20260505012500 49 0 0.0 0.0 0.00 0.00 0.00 77 1010.7
20260505012000 49 0 0.0 0.0 0.00 0.00 0.00 77 1010.7
20260505011500 49 0 0.0 0.0 0.00 0.00 0.00 77 1010.6
20260505011000 49 0 0.0 0.0 0.00 0.00 0.00 77 1010.6
20260505010001 49 0 0.0 0.0 0.00 0.00 0.00 77 1010.7
20260505005002 49 0 0.0 0.0 0.00 0.00 0.00 78 1010.8
20260505004501 49 0 0.0 0.0 0.00 0.00 0.00 78 1010.8
20260505004001 49 0 0.0 0.0 0.00 0.00 0.00 78 1010.8
20260505003500 49 0 0.0 0.0 0.00 0.00 0.00 78 1010.9
20260505003000 49 0 0.0 0.0 0.00 0.00 0.00 77 1010.9
20260505002000 49 0 0.0 0.0 0.00 0.00 0.00 77 1011.1
20260505001500 49 0 0.0 0.0 0.00 0.00 0.00 78 1011.1
20260505001000 49 0 0.0 0.0 0.00 0.00 0.00 77 1011.1
20260505000500 49 0 0.0 0.0 0.00 0.00 0.00 77 1011.1
20260505000002 49 0 0.0 0.0 0.00 0.00 0.00 77 1011.1
20260504235500 49 0 0.0 0.0 0.00 0.00 0.00 77 1011.2
20260504235001 49 0 0.0 0.0 0.00 0.00 0.00 78 1011.2
20260504234501 49 0 0.0 0.0 0.00 0.00 0.00 78 1011.3
20260504233500 50 0 0.0 0.0 0.00 0.00 0.00 78 1011.3
20260504233000 50 0 0.0 0.0 0.00 0.00 0.00 77 1011.4
20260504232001 51 0 0.0 0.0 0.00 0.00 0.00 77 1011.4
20260504231500 51 0 0.0 0.0 0.00 0.00 0.00 77 1011.4
20260504231000 51 0 0.0 0.0 0.00 0.00 0.00 77 1011.5
20260504230501 51 0 0.0 0.0 0.00 0.00 0.00 76 1011.5
20260504225500 51 0 0.0 0.0 0.00 0.00 0.00 77 1011.6
20260504224500 52 0 0.0 0.0 0.00 0.00 0.00 77 1011.8
20260504224000 52 0 0.0 0.0 0.00 0.00 0.00 77 1011.8
20260504223500 52 0 0.0 0.0 0.00 0.00 0.00 77 1011.8
20260504223001 52 0 0.0 0.0 0.00 0.00 0.00 77 1011.8
20260504222501 52 0 0.0 0.0 0.00 0.00 0.00 77 1011.8
20260504222001 53 0 0.0 0.0 0.00 0.00 0.00 77 1011.8